Notices

What's New in latest Release from April 7th, 2021:

- Updated Glossary, including Speed of Maximum Gust, and Total Hourly Precipitation

- Updated national and regional climate services offices contacts and prices information

- Addition of station inventory lists for 1981-2010, 1971-2000, and 1961-1990 Normals.

If you haven't already, please take our survey and provide feedback about our website: https://eccc.sondage-survey.ca/f/LanguageSelection.aspx?s=442ca660-fcf1-47c0-95a9-59707d6fd709

Hourly Data Report for April 12, 2019

MIRAMICHI RCS
NEW BRUNSWICK
Current Station Operator: ECCC - MSC

47°00'34.000" N
65°27'54.000" W
33.00 m
8100989
71744
ACQ

Download Data

Hourly Data (April 2019)
Hourly Data Report for April 12, 2019
TIME
LST
Temp Definition
°C
Dew Point Definition
°C
Rel Hum Definition
%
Precip. Amount Definition
mm

Wind Dir Definition
10's deg

Wind Spd Definition
km/h
Visibility Definition
km
Stn Press Definition
kPa
Hmdx Definition


Wind Chill Definition


Weather Definition


00:00 -0.2 -5.9 65 0.0 30 5   101.74   -2 LegendNANA
01:00 -1.8 -6.0 73 0.0 25 6   101.83   -4 LegendNANA
02:00 -1.7 -6.2 71 0.0 24 5   101.82   -4 LegendNANA
03:00 -2.7 -6.4 76 0.0 0 1   101.85   -3 LegendNANA
04:00 -3.8 -6.9 79 0.0 22 3   101.88   -5 LegendNANA
05:00 -4.2 -7.4 78 0.0 23 5   101.92   -6 LegendNANA
06:00 -3.2 -7.4 73 0.0 27 6   102.03   -6 LegendNANA
07:00 -1.4 -6.5 68 0.0 27 4   102.04   -3 LegendNANA
08:00 1.3 -6.1 58 0.0 22 4   102.12     LegendNANA
09:00 4.5 -6.7 44 0.0 13 4   102.12     LegendNANA
10:00 7.0 -7.3 35 0.0 10 4   102.11     LegendNANA
11:00 8.2 -9.0 29 0.0 22 6   102.06     LegendNANA
12:00 9.4 -9.5 25 0.0 21 7   101.99     LegendNANA
13:00 10.9 -8.9 24 0.0 20 6   101.94     LegendNANA
14:00 11.6 -5.4 30 0.0 11 5   101.87     LegendNANA
15:00 12.6 -8.8 22 0.0 10 4   101.83     LegendNANA
16:00 14.1 -8.2 20 0.0 25 6   101.78     LegendNANA
17:00 13.4 -7.1 23 0.0 7 4   101.74     LegendNANA
18:00 7.9 -2.7 47 0.0 5 8   101.76     LegendNANA
19:00 5.8 -3.9 50 0.0 4 8   101.78     LegendNANA
20:00 5.4 -6.0 44 0.0 5 7   101.77     LegendNANA
21:00 4.6 -5.8 47 0.0 3 7   101.74     LegendNANA
22:00 4.1 -5.7 49 0.0 5 3   101.67     LegendNANA
23:00 4.5 -5.7 47 0.0 7 3   101.58     LegendNANA

Notes on Data Quality.

Legend

  • E = Estimated
  • M = Missing
  • NA = Not Available*
  • [empty] = Indicates an unobserved value
Date modified: